Elwood, MO

6:55 AM CST on February 08, 2016 (GMT -0600)
Rosecrans Memorial

Weather History for KSTJ - August, 2013

Change the Weather History Date:

Wednesday, August 7, 2013

  Actual Average Record
Temperature  
Mean Temperature 78 °F 77 °F  
Max Temperature 89 °F 87 °F 108 °F (1934)
Min Temperature 66 °F 66 °F 48 °F (1989)
Degree Days  
Heating Degree Days 0 0  
Month to date heating degree days 0 0  
Since 1 June heating degree days 17 9  
Since 1 July heating degree days 2 1  
Cooling Degree Days 13 12  
Month to date cooling degree days 78 84  
Year to date cooling degree days 825 838  
Since 1 June cooling degree days 699 725  
Growing Degree Days 28 (Base 50)    
Moisture  
Dew Point 70 °F    
Average Humidity 76    
Maximum Humidity 100    
Minimum Humidity 51    
Precipitation  
Precipitation 0.00 in 0.12 in 2.35 in (1898)
Month to date precipitation 0.63 0.75  
Year to date precipitation 19.04 23.07  
Sea Level Pressure  
Sea Level Pressure 29.87 in    
Wind  
Wind Speed 5 mph (North)    
Max Wind Speed 14 mph    
Max Gust Speed 16 mph    
Visibility 10 miles    
Events Thunderstorm    
T = Trace of Precipitation, MM = Missing Value Source: NWS Daily Summary

Daily Weather History Graph

Daily Weather History Graph

Search for Another Location

Airport or City:

Trip Planner

Search our weather history database for the weather conditions in past years. The results will help you decide how hot, cold, wet, or windy it might be!

Date:

Astronomy

Aug. 07, 2013 Rise Set
Actual Time 6:24 AM CDT 8:25 PM CDT
Civil Twilight 5:54 AM CDT 8:55 PM CDT
Nautical Twilight 5:18 AM CDT 9:31 PM CDT
Astronomical Twilight 4:39 AM CDT 10:10 PM CDT
Moon 7:13 AM CDT (8/7) 8:33 PM CDT (8/7)
Length of Visible Light 15h 00m
Length of Day
14h 01m
New Moon, 1% of the Moon is Illuminated
Aug 7
New Moon
Aug 14
First Quarter
Aug 20
Full
Aug 28
Last Quarter
Sep 5
New

Hourly Weather History & Observations

Time (CDT) Temp. Heat Index Dew Point Humidity Pressure Visibility Wind Dir Wind Speed Gust Speed Precip Events Conditions
12:53 AM 75.0 °F - 73.0 °F 94% 29.82 in 10.0 mi Calm Calm - N/A   Clear
1:53 AM 73.0 °F - 71.1 °F 93% 29.79 in 10.0 mi Calm Calm - N/A   Clear
2:53 AM 72.0 °F - 71.1 °F 97% 29.77 in 10.0 mi Calm Calm - N/A   Clear
3:53 AM 73.0 °F - 71.1 °F 93% 29.80 in 10.0 mi Calm Calm - N/A   Clear
4:53 AM 73.0 °F - 72.0 °F 96% 29.79 in 10.0 mi Calm Calm - N/A   Scattered Clouds
5:45 AM 73.4 °F - 71.6 °F 94% 29.85 in 10.0 mi North 5.8 mph - N/A   Overcast
5:53 AM 75.0 °F - 72.0 °F 90% 29.82 in 10.0 mi North 3.5 mph - N/A Thunderstorm Mostly Cloudy
6:09 AM 75.2 °F - 71.6 °F 89% 29.85 in 10.0 mi Calm Calm - N/A   Overcast
6:17 AM 75.2 °F - 73.4 °F 94% 29.85 in 10.0 mi Calm Calm - N/A Thunderstorm Overcast
6:31 AM 75.2 °F - 73.4 °F 94% 29.85 in 10.0 mi Calm Calm - N/A Thunderstorm Overcast
6:53 AM 75.0 °F - 73.0 °F 94% 29.83 in 10.0 mi SSW 4.6 mph - N/A   Overcast
7:27 AM 75.2 °F - 73.4 °F 94% 29.86 in 10.0 mi Calm Calm - N/A   Mostly Cloudy
7:40 AM 75.2 °F - 73.4 °F 94% 29.86 in 10.0 mi Calm Calm - N/A Thunderstorm Mostly Cloudy
7:53 AM 75.9 °F - 73.9 °F 94% 29.84 in 10.0 mi Calm Calm - N/A Thunderstorm Mostly Cloudy
8:09 AM 75.2 °F - 73.4 °F 94% 29.88 in 10.0 mi NNE 4.6 mph - N/A   Mostly Cloudy
8:53 AM 77.0 °F - 73.9 °F 90% 29.88 in 10.0 mi East 3.5 mph - N/A Thunderstorm Overcast
9:12 AM 78.8 °F - 69.8 °F 74% 29.92 in 10.0 mi ENE 3.5 mph - N/A   Overcast
9:53 AM 80.1 °F 84.2 °F 73.0 °F 79% 29.89 in 10.0 mi North 5.8 mph - N/A   Mostly Cloudy
10:53 AM 82.0 °F 86.3 °F 71.1 °F 69% 29.91 in 10.0 mi NE 6.9 mph - N/A   Partly Cloudy
11:53 AM 86.0 °F 93.0 °F 73.0 °F 65% 29.91 in 10.0 mi NNE 8.1 mph - N/A   Clear
12:53 PM 84.9 °F 90.7 °F 72.0 °F 65% 29.90 in 10.0 mi North 9.2 mph - N/A   Clear
1:53 PM 87.1 °F 90.6 °F 68.0 °F 53% 29.90 in 10.0 mi North 9.2 mph - N/A   Clear
2:53 PM 88.0 °F 91.4 °F 68.0 °F 51% 29.90 in 10.0 mi North 9.2 mph - N/A   Clear
3:53 PM 87.1 °F 91.3 °F 69.1 °F 55% 29.89 in 10.0 mi NNW 6.9 mph - N/A   Clear
4:53 PM 86.0 °F 88.8 °F 66.9 °F 53% 29.89 in 10.0 mi NNW 11.5 mph - N/A   Clear
5:53 PM 84.9 °F 86.6 °F 64.9 °F 51% 29.90 in 10.0 mi NNW 10.4 mph - N/A   Clear
6:53 PM 82.9 °F 85.0 °F 66.0 °F 56% 29.90 in 10.0 mi NNW 5.8 mph - N/A   Clear
7:53 PM 78.1 °F - 66.0 °F 66% 29.91 in 10.0 mi North 4.6 mph - N/A   Clear
8:53 PM 71.1 °F - 66.0 °F 84% 29.93 in 10.0 mi North 5.8 mph - N/A   Clear
9:53 PM 70.0 °F - 66.0 °F 87% 29.95 in 10.0 mi North 6.9 mph - N/A   Clear
10:53 PM 69.1 °F - 63.0 °F 81% 29.95 in 10.0 mi North 6.9 mph - N/A   Clear
11:53 PM 70.0 °F - 62.1 °F 76% 29.96 in 10.0 mi North 6.9 mph - N/A   Clear